KCMH

Port Columbus International

Airport
ICAO code
KCMH
Summary
ICAO Region
NAM
ICAO Territory
Location

Columbus, Ohio,

Coordinates
39° 59' 54" N , 82° 53' 33" W
KCC
Airport LOS
Parallel Runway Operation
Metar
Observation
KCMH 250451Z 21005KT 10SM SCT200 17/13 A2982 RMK AO2 SLP093 T01670133 402170128
Station
Columbus, Port Columbus International Airport
Date/Time
2022-09-25 04:51:00
Wind direction
210°
Wind speed
05 kts
Lowest cloud amount
scattered clouds
Temperature
16.7°C
Dew point
13.3°C
Humidity
80%
Weather condition
n/a

Description

Port Columbus International Airport, commonly shortened to Port Columbus, is an international airport located 10 km east of downtown Columbus, Ohio, USA.

Climatology

Humid “subtropical” climate (Köppen climate classification Cfa) - characterized by hot, humid summers and cool winters. Significant amounts of precipitation occur in all seasons in most areas. Winter rainfall (and sometimes snowfall) is associated with large storms that the westerlies steer from west to east. Most summer rainfall occurs during thunderstorms.

Airport map

Aerial View

SKYbrary Partners:

Safety knowledge contributed by: